Retour au catalogue

STARLINK-11553

ActifCommunicationsVLEO
NORAD 63006·PAYLOAD·🇺🇸 United States

Lancé Feb 15, 2025 depuis Cape Canaveral Space Force Station

Loading…

Prochains Passages (prochaines 24 heures)

TLE

FraisSource: CelesTrak SupGP

Époque: Sep 14, 2026, 20:40 UTC

1 63006C 25032B   26257.86159722 -.00049616  00000+0 -38541-3 0  2577
2 63006  43.0000 135.4597 0001645 256.2020  22.3287 15.70860057    15

Suivez STARLINK-11553 en temps réel avec AllMySat

Download on the App Store